Back to catalog

STARLINK-35298

AliveCommunicationsVLEO
NORAD 65842·PAYLOAD·🇺🇸 United States

Launched Sep 29, 2025 from Vandenberg Space Force Base

Loading…

Next Passes (next 24 hours)

TLE

FreshSource: CelesTrak SupGP

Epoch: Sep 14, 2026, 14:36 UTC

1 65842C 25221V   26257.60881944  .00020355  00000+0  60111-3 0  2572
2 65842  53.1574 287.1441 0001318  69.4105 153.0207 15.34395395    13

Track STARLINK-35298 in real time with AllMySat

Download on the App Store